RH
24 25 21 16 14 13 12 11 11 10 9 11 9 9 8 8 8 7 7 6 5 5 5 5 6 9 13 14 14 16 19 19 23 23 21 23 26 30 36 40 41 42 42 46
28 23 17 17 15 14 14 13 11 11 11 13 14 12 11 9 9 7 7 6 6 5 6 5 5 8 12 13 12 14 18 20 22 22 22 24 26 31 36 42 45 48 47 47
25 17 19 18 17 16 15 14 12 12 12 13 15 16 14 11 9 7 6 5 5 5 5 5 5 6 8 11 12 13 15 18 20 21 24 27 31 35 41 44 46 48 48 50
24 20 20 18 18 16 17 14 14 14 13 16 17 18 15 10 9 8 6 6 6 5 6 6 5 6 7 9 11 12 14 16 19 22 24 26 28 32 37 42 49 53 51 50
25 25 26 22 16 17 15 17 17 17 17 16 13 18 11 11 10 7 6 6 6 6 6 6 6 6 7 9 10 12 13 15 19 23 26 28 32 36 40 45 49 62 61 54
25 23 22 16 19 20 18 21 19 21 22 26 14 15 12 10 8 7 6 7 7 7 8 8 7 7 9 11 11 13 14 14 15 20 26 31 35 41 45 48 54 62 62 58
30 25 24 21 23 20 24 26 29 30 29 21 15 18 12 10 8 7 6 6 8 9 9 10 9 10 11 12 14 14 12 13 16 19 23 29 38 43 47 49 56 62 60 57
49 45 25 18 21 17 22 27 35 33 28 20 18 17 12 9 7 6 8 8 10 10 10 11 12 15 13 13 15 14 13 14 17 20 23 28 36 41 42 52 53 56 56 57
48 48 30 19 17 21 18 32 20 27 27 31 25 15 13 10 10 9 11 11 11 12 13 12 13 13 13 14 14 12 12 14 18 22 26 31 36 39 44 48 51 53 56 57
37 48 41 31 23 21 25 20 32 32 37 35 23 18 16 11 14 12 14 14 15 15 16 16 14 14 13 13 12 14 13 14 18 22 27 31 34 38 43 44 48 57 57 56
40 47 35 40 42 32 26 28 32 31 34 35 30 21 13 12 14 19 19 20 21 20 18 15 13 13 13 12 14 14 12 13 17 22 26 29 32 35 41 48 52 55 57 61
44 46 46 37 34 39 38 32 28 36 34 30 25 23 13 11 11 13 16 18 20 19 18 15 14 14 14 14 15 13 14 15 21 26 29 33 35 41 47 50 55 59 59 62
75 66 61 46 37 43 49 45 39 37 31 32 33 23 13 11 14 15 16 19 20 19 19 18 17 15 15 17 17 14 14 16 23 27 31 37 41 45 50 53 58 62 67 71
89 94 93 66 36 24 43 44 43 42 44 34 32 23 21 15 11 16 20 18 17 18 19 18 18 19 20 19 18 16 15 17 23 28 35 40 44 50 56 60 66 70 73 75
91 98 96 88 67 45 34 47 47 49 45 43 32 28 21 17 16 10 13 14 16 19 22 24 23 25 25 21 19 19 20 20 25 32 39 44 53 60 65 70 73 74 70 66
84 96 95 97 94 81 62 40 48 46 49 44 36 33 27 25 20 16 16 19 20 21 23 26 26 27 26 22 21 24 25 25 26 33 42 48 59 65 70 73 69 65 63 65
76 85 86 85 78 95 96 64 40 38 45 48 43 27 25 27 28 25 23 18 19 25 28 26 25 23 26 26 24 28 28 30 30 36 44 53 61 67 68 69 68 69 72 72
61 66 86 85 86 97 82 70 64 44 37 43 41 29 21 19 22 24 29 23 19 15 20 25 27 30 32 31 32 31 33 36 36 43 50 56 63 70 74 73 73 72 74 76
55 59 72 77 76 62 67 67 71 61 41 30 38 31 22 19 21 23 19 22 27 23 24 27 36 41 42 39 38 38 39 42 43 49 56 62 69 75 77 77 78 79 81 84
49 55 68 61 75 73 48 58 57 56 65 34 34 35 25 20 30 19 15 21 24 31 28 26 28 33 33 35 37 40 47 52 54 59 63 67 72 77 79 83 82 85 88 85
60 63 76 70 76 67 40 42 57 82 70 31 30 30 26 28 26 21 26 27 27 32 35 36 33 33 36 41 46 52 58 63 67 72 72 72 76 81 84 84 89 92 96 97
73 84 85 74 81 79 35 43 68 50 49 36 35 40 39 37 39 35 37 35 33 33 34 35 35 36 39 45 51 57 60 66 72 72 74 77 82 83 85 93 98 97 97 95
82 70 72 67 60 42 24 45 44 58 61 53 49 40 40 36 35 32 32 38 42 40 40 39 39 42 47 52 54 58 65 67 69 70 75 80 82 87 93 97 98 95 93 87
56 55 67 64 52 40 39 47 50 62 61 62 58 47 43 42 41 39 36 36 42 45 42 41 44 47 51 54 56 61 67 69 71 75 80 84 89 93 91 91 88 83 76 70
47 53 61 59 80 49 42 45 47 66 68 64 59 62 59 57 51 46 43 44 44 43 47 48 47 52 54 55 64 70 71 73 76 79 84 90 94 94 91 82 75 72 68 62
53 57 75 57 54 73 65 62 63 71 73 60 62 65 63 69 74 67 59 57 54 52 55 57 60 63 64 69 73 75 76 80 83 87 90 93 93 89 85 81 76 68 63 60